PA0HHN Weather Reports


Display with metric or nautical units.
time (UTC)temp
F
wind
direction
speed
MPH
gust
MPH
rain 1hr
in
rain 24hr
in
rain mn
in
humidity
%
barometer
mb
20260507051500 43 258 0.0 0.0 0.00 0.00 0.00 96 1008.4
20260507050000 41 253 0.0 0.0 0.00 0.00 0.00 97 1008.3
20260507044502 41 254 0.0 0.0 0.00 0.00 0.00 97 1008.0
20260507043001 39 255 0.0 0.0 0.00 0.00 0.00 97 1008.0
20260507041500 39 257 0.0 0.0 0.00 0.00 0.00 97 1007.9
20260507040001 39 262 0.0 0.0 0.00 0.00 0.00 97 1007.7
20260507034502 39 258 0.0 0.0 0.00 0.00 0.00 96 1007.8
20260507033001 39 262 0.0 0.0 0.00 0.00 0.00 96 1007.3
20260507031500 39 257 0.0 0.0 0.00 0.00 0.00 96 1007.4
20260507030002 41 255 0.0 0.0 0.00 0.00 0.00 96 1007.3
20260507024502 41 259 0.0 0.0 0.00 0.00 0.00 96 1007.3
20260507023000 41 256 0.0 0.0 0.00 0.00 0.00 96 1007.1
20260507021501 41 258 0.0 0.0 0.00 0.00 0.00 96 1007.1
20260507020002 41 259 0.0 0.0 0.00 0.00 0.00 96 1007.1
20260507014501 41 258 0.0 0.0 0.00 0.00 0.00 95 1007.0
20260507013002 41 259 0.0 0.0 0.00 0.00 0.00 95 1006.8
20260507011502 41 247 0.0 0.0 0.00 0.00 0.00 95 1007.0
20260507010001 41 259 0.0 0.0 0.00 0.00 0.00 95 1006.9
20260507004501 43 258 0.0 0.0 0.00 0.00 0.00 94 1006.6
20260507003000 43 257 0.0 0.0 0.00 0.00 0.00 94 1006.4
20260507001502 43 256 0.0 0.0 0.00 0.00 0.00 94 1006.6
20260507000002 43 250 0.0 0.0 0.00 0.00 0.00 93 1006.6
20260506234501 43 257 0.0 0.0 0.00 0.00 0.00 92 1006.8
20260506233001 45 251 0.0 0.0 0.00 0.00 0.00 91 1006.8
20260506231500 45 254 0.0 0.0 0.00 0.00 0.00 91 1006.6
20260506230002 45 258 0.0 0.0 0.00 0.00 0.00 91 1006.8
20260506224502 45 253 0.0 0.0 0.00 0.00 0.00 90 1006.7
20260506223002 46 257 0.0 0.0 0.00 0.00 0.00 89 1006.4
20260506221500 46 254 0.0 0.0 0.00 0.00 0.00 88 1006.7
20260506220001 46 257 0.0 0.0 0.00 0.00 0.00 87 1006.5
20260506214502 46 253 0.0 0.0 0.00 0.00 0.00 86 1006.2
20260506204500 48 235 0.0 0.0 0.00 0.00 0.00 83 1006.2
20260506203002 50 247 0.0 0.0 0.00 0.00 0.00 82 1006.0
20260506201502 50 256 0.0 0.0 0.00 0.00 0.00 82 1005.9
20260506200003 50 246 0.0 0.0 0.00 0.00 0.00 81 1005.8
20260506194500 50 225 0.0 0.0 0.00 0.00 0.00 80 1005.7
20260506193002 52 259 0.0 0.0 0.00 0.00 0.00 81 1005.4
20260506191501 52 262 0.0 0.0 0.00 0.00 0.00 80 1005.4
20260506190000 52 264 0.0 0.0 0.00 0.00 0.00 80 1005.4
20260506184500 52 261 0.0 0.0 0.00 0.00 0.00 80 1005.2
20260506183001 52 269 0.0 0.0 0.00 0.00 0.00 80 1005.0
20260506181502 52 268 0.0 0.0 0.00 0.00 0.00 79 1004.9
20260506180003 52 265 0.0 0.0 0.00 0.00 0.00 79 1004.6
20260506174502 52 268 0.0 0.0 0.00 0.00 0.00 77 1004.5
20260506173000 52 274 0.0 0.0 0.00 0.00 0.00 77 1004.2
20260506171502 52 343 0.0 0.0 0.00 0.00 0.00 76 1004.2
20260506170001 54 260 0.0 0.0 0.00 0.00 0.00 77 1004.3
20260506164502 52 260 0.0 0.0 0.00 0.00 0.00 76 1004.3
20260506163002 54 160 0.0 0.0 0.00 0.00 0.00 77 1004.0
20260506161502 54 338 1.0 0.0 0.00 0.00 0.00 74 1004.3
20260506160000 54 249 0.0 0.0 0.00 0.00 0.00 75 1004.2
20260506154502 54 274 0.0 0.0 0.00 0.00 0.00 75 1004.0
20260506153001 54 257 0.0 0.0 0.00 0.00 0.00 77 1004.3
20260506151502 54 282 0.0 0.0 0.00 0.00 0.00 76 1004.1
20260506150002 52 21 1.0 0.0 0.00 0.00 0.00 76 1004.1
20260506144501 52 266 0.0 0.0 0.00 0.00 0.00 76 1003.7
20260506143000 54 248 2.0 0.0 0.00 0.00 0.00 73 1003.8
20260506141500 54 255 2.0 0.0 0.00 0.00 0.00 74 1003.9
20260506140001 54 41 3.0 0.0 0.00 0.00 0.00 74 1003.9
20260506134501 52 311 2.0 0.0 0.00 0.00 0.00 77 1003.9
20260506133000 54 317 1.0 0.0 0.00 0.00 0.00 77 1004.2
20260506121502 50 16 0.0 0.0 0.00 0.00 0.00 80 1003.9
20260506113000 50 146 1.0 0.0 0.00 0.00 0.00 78 1003.6
20260506111502 50 51 2.0 0.0 0.00 0.00 0.00 78 1003.5
20260506110002 50 4 1.0 0.0 0.00 0.00 0.00 78 1003.3
20260506104500 50 41 1.0 0.0 0.00 0.00 0.00 78 1003.6
20260506103001 50 1 2.0 0.0 0.00 0.00 0.00 77 1003.4
20260506101502 50 200 1.0 0.0 0.00 0.00 0.00 81 1003.3
20260506100000 50 260 0.0 0.0 0.00 0.00 0.00 82 1003.0
20260506094502 50 245 0.0 0.0 0.00 0.00 0.00 81 1003.0
20260506093000 50 242 0.0 0.0 0.00 0.00 0.00 82 1003.1
20260506091502 50 54 2.0 0.0 0.00 0.00 0.00 83 1003.0
20260506090002 50 22 0.0 0.0 0.00 0.00 0.00 83 1002.8
20260506084502 50 29 0.0 0.0 0.00 0.00 0.00 83 1002.9
20260506083001 50 284 1.0 0.0 0.00 0.00 0.00 83 1002.6
20260506081500 50 276 0.0 0.0 0.00 0.00 0.00 84 1002.7
20260506073000 50 240 0.0 0.0 0.00 0.00 0.00 85 1002.4
20260506071500 50 191 0.0 0.0 0.00 0.00 0.00 86 1002.3
20260506061500 48 257 0.0 0.0 0.00 0.00 0.00 90 1002.3